SES-18

Last updated on Wed Sep 17 2025 00:02:51 GMT+0000 (Coordinated Universal Time)

1 55970U 23038A 25259.56327859 -.00000120 00000+0 00000+0 0 9992 2 55970 0.0355 265.5935 0002015 320.7072 229.1236 1.00271271 9358
UTC large
Height (km)
Speed (km/s)
/
Latitude / Longitude
Inclination (degrees)
Orbital Period (minutes)
Azimuth
Elevation
Range (km)
Doppler Factor

Next 0 passes for location: London (51.5072 / 0.1276)

Sorry there are no passes over London.